User: anonymous   Login
Location: Mactaquac Provincial Park
(45.9573°N, 66.8897°W)
Time: 04:16:31
(UTC-04:00)
Language:

Cosmos 1867 - Orbit

View from above orbital plane
View from above orbital plane
View from above satellite
View from above satellite

Ground track
Ground track

The orbit data is extracted from the following two-line orbital elements,

1 18187U 87060A   15028.42339778 -.00000068  00000-0  12051-4 0  2884
2 18187 065.0118 145.6580 0013818 276.1000 083.8509 14.31046474439399
Epoch (UTC): 28 January 2015 10:09:41
Eccentricity: 0.0013818
inclination: 65.0118°
perigee height: 778 km
apogee height: 798 km
right ascension of ascending node: 145.6580°
argument of perigee: 276.1000°
revolutions per day: 14.31046474
mean anomaly at epoch: 83.8509°
orbit number at epoch: 43939

The dashed part of the orbit path shows where the satellite is in the earth's shadow,  

DLR